H1 CPF 2 NER 2023 4 26 9 116 01 glonass127 H2 1106403 9127 37869 2023 4 26 0 0 0 2023 4 29 23 45 0 900 1 1 0 0 0 1 H9 10 0 60060 0.00000 0 -2782732.964 -24870752.399 5073713.871 10 0 60060 900.00000 0 -2735583.445 -24051604.777 8151210.409 10 0 60060 1800.00000 0 -2516848.786 -22887429.746 11070999.264 10 0 60060 2700.00000 0 -2087340.520 -21421257.992 13776755.633 10 0 60060 3600.00000 0 -1417278.286 -19705124.206 16216357.006 10 0 60060 4500.00000 0 -487774.071 -17797939.394 18342862.395 10 0 60060 5400.00000 0 708141.925 -15763103.052 20115389.494 10 0 60060 6300.00000 0 2164995.379 -13665953.645 21499875.487 10 0 60060 7200.00000 0 3864863.024 -11571161.620 22469709.424 10 0 60060 8100.00000 0 5777889.160 -9540170.730 23006226.359 10 0 60060 9000.00000 0 7863302.936 -7628790.996 23099055.584 10 0 60060 9900.00000 0 10070895.913 -5885040.249 22746317.502 10 0 60060 10800.00000 0 12342901.219 -4347321.136 21954665.751 10 0 60060 11700.00000 0 14616199.437 -3043007.117 20739173.423 10 0 60060 12600.00000 0 16824763.124 -1987494.850 19123064.326 10 0 60060 13500.00000 0 18902241.805 -1183761.894 17137292.572 10 0 60060 14400.00000 0 20784582.970 -622448.548 14819976.086 10 0 60060 15300.00000 0 22412582.199 -282461.576 12215692.191 10 0 60060 16200.00000 0 23734257.407 -132076.261 9374645.958 10 0 60060 17100.00000 0 24706948.289 -130492.580 6351724.637 10 0 60060 18000.00000 0 25299052.222 -229781.987 3205454.207 10 0 60060 18900.00000 0 25491322.058 -377144.395 -3123.498 10 0 60060 19800.00000 0 25277668.733 -517380.960 -3211632.273 10 0 60060 20700.00000 0 24665431.876 -595478.208 -6357578.832 10 0 60060 21600.00000 0 23675103.945 -559193.195 -9379581.626 10 0 60060 22500.00000 0 22339516.554 -361528.333 -12218585.946 10 0 60060 23400.00000 0 20702520.988 37011.665 -14819039.704 10 0 60060 24300.00000 0 18817216.924 666479.631 -17130004.688 10 0 60060 25200.00000 0 16743803.286 1545948.340 -19106179.170 10 0 60060 26100.00000 0 14547142.033 2682444.097 -20708809.419 10 0 60060 27000.00000 0 12294138.358 4070399.848 -21906470.114 10 0 60060 27900.00000 0 10051049.075 5691653.564 -22675696.552 10 0 60060 28800.00000 0 7880834.184 7515993.815 -23001454.887 10 0 60060 29700.00000 0 5840664.647 9502230.527 -22877440.393 10 0 60060 30600.00000 0 3979692.482 11599745.947 -22306197.641 10 0 60060 31500.00000 0 2337177.588 13750459.898 -21299060.518 10 0 60060 32400.00000 0 941049.942 15891125.432 -19875914.107 10 0 60060 33300.00000 0 -193033.465 17955856.848 -18064784.313 10 0 60060 34200.00000 0 -1062099.206 19878782.169 -15901264.928 10 0 60060 35100.00000 0 -1675721.033 21596707.221 -13427795.257 10 0 60060 36000.00000 0 -2055345.740 23051678.425 -10692804.482 10 0 60060 36900.00000 0 -2233113.435 24193336.305 -7749741.666 10 0 60060 37800.00000 0 -2250225.931 24980961.271 -4656012.345 10 0 60060 38700.00000 0 -2154935.739 25385127.026 -1471844.279 10 0 60060 39600.00000 0 -2000243.703 25388894.087 1740894.036 10 0 60060 40500.00000 0 -1841404.874 24988495.873 4919898.111 10 0 60060 41400.00000 0 -1733349.365 24193491.422 8003631.671 10 0 60060 42300.00000 0 -1728127.509 23026381.256 10932507.114 10 0 60060 43200.00000 0 -1872486.605 21521705.081 13650020.271 10 0 60060 44100.00000 0 -2205680.132 19724661.147 16103819.035 10 0 60060 45000.00000 0 -2757599.875 17689306.206 18246687.185 10 0 60060 45900.00000 0 -3547307.515 15476411.459 20037426.900 10 0 60060 46800.00000 0 -4582025.482 13151063.089 21441625.562 10 0 60060 47700.00000 0 -5856628.008 10780105.553 22432294.645 10 0 60060 48600.00000 0 -7353653.016 8429531.438 22990370.784 10 0 60060 49500.00000 0 -9043834.676 6161923.217 23105071.271 10 0 60060 50400.00000 0 -10887135.646 4034049.896 22774098.368 10 0 60060 51300.00000 0 -12834238.147 2094715.122 22003689.024 10 0 60060 52200.00000 0 -14828434.718 382943.373 20808508.670 10 0 60060 53100.00000 0 -16807843.258 -1073422.450 19211389.988 10 0 60060 54000.00000 0 -18707857.647 -2258654.857 17242919.802 10 0 60060 54900.00000 0 -20463735.076 -3169568.408 14940879.594 10 0 60060 55800.00000 0 -22013214.872 -3815420.705 12349547.650 10 0 60060 56700.00000 0 -23299061.262 -4217290.527 9518873.409 10 0 60060 57600.00000 0 -24271424.524 -4406957.391 6503537.206 10 0 60060 58500.00000 0 -24889921.212 -4425327.610 3361911.276 10 0 60060 59400.00000 0 -25125344.760 -4320471.338 154940.387 10 0 60060 60300.00000 0 -24960932.193 -4145352.099 -3055037.228 10 0 60060 61200.00000 0 -24393130.648 -3955344.153 -6205505.915 10 0 60060 62100.00000 0 -23431828.060 -3805643.066 -9235001.403 10 0 60060 63000.00000 0 -22100034.984 -3748680.405 -12084327.163 10 0 60060 63900.00000 0 -20433028.040 -3831654.239 -14697732.699 10 0 60060 64800.00000 0 -18476988.786 -4094282.939 -17024028.553 10 0 60060 65700.00000 0 -16287193.931 -4566880.719 -19017613.797 10 0 60060 66600.00000 0 -13925832.596 -5268839.849 -20639393.492 10 0 60060 67500.00000 0 -11459542.777 -6207587.005 -21857565.984 10 0 60060 68400.00000 0 -8956771.645 -7378060.689 -22648262.752 10 0 60060 69300.00000 0 -6485072.105 -8762733.880 -22996026.917 10 0 60060 70200.00000 0 -4108450.772 -10332182.254 -22894120.168 10 0 60060 71100.00000 0 -1884880.137 -12046174.396 -22344651.825 10 0 60060 72000.00000 0 135919.613 -13855237.654 -21358527.750 10 0 60060 72900.00000 0 1914335.758 -15702632.546 -19955220.916 10 0 60060 73800.00000 0 3422277.885 -17526651.066 -18162369.321 10 0 60060 74700.00000 0 4644094.475 -19263140.272 -16015210.784 10 0 60060 75600.00000 0 5576955.139 -20848143.273 -13555867.548 10 0 60060 76500.00000 0 6230685.632 -22220545.007 -10832496.762 10 0 60060 77400.00000 0 6627066.314 -23324610.603 -7898325.599 10 0 60060 78300.00000 0 6798627.626 -24112309.331 -4810591.892 10 0 60060 79200.00000 0 6786997.341 -24545326.980 -1629412.777 10 0 60060 80100.00000 0 6640872.877 -24596683.378 1583395.071 10 0 60060 81000.00000 0 6413707.198 -24251889.073 4765519.644 10 0 60060 81900.00000 0 6161208.038 -23509595.041 7855358.427 10 0 60060 82800.00000 0 5938757.027 -22381710.840 10793200.593 10 0 60060 83700.00000 0 5798857.659 -20892988.757 13522364.527 10 0 60060 84600.00000 0 5788718.775 -19080093.540 15990270.172 10 0 60060 85500.00000 0 5948073.741 -16990198.020 18149427.443 10 0 60061 0.00000 0 6307324.990 -14679164.063 19958323.914 10 0 60061 900.00000 0 6886089.961 -12209382.939 21382198.214 10 0 60061 1800.00000 0 7692207.083 -9647366.729 22393684.456 10 0 60061 2700.00000 0 8721242.747 -7061184.454 22973320.927 10 0 60061 3600.00000 0 9956519.041 -4517849.441 23109912.673 10 0 60061 4500.00000 0 11369661.704 -2080761.817 22800743.309 10 0 60061 5400.00000 0 12921646.904 192691.020 22051632.340 10 0 60061 6300.00000 0 14564305.497 2253279.540 20876836.588 10 0 60061 7200.00000 0 16242225.023 4061736.318 19298796.481 10 0 60061 8100.00000 0 17894973.445 5590146.157 17347730.273 10 0 60061 9000.00000 0 19459555.145 6822865.102 15061081.564 10 0 60061 9900.00000 0 20872999.525 7756929.916 12482827.997 10 0 60061 10800.00000 0 22074976.204 8401939.960 9662661.601 10 0 60061 11700.00000 0 23010328.580 8779414.914 6655053.815 10 0 60061 12600.00000 0 23631419.650 8921653.311 3518220.956 10 0 60061 13500.00000 0 23900190.619 8870138.015 313008.371 10 0 60061 14400.00000 0 23789843.691 8673554.178 -2898286.166 10 0 60061 15300.00000 0 23286075.338 8385502.312 -6053127.193 10 0 60061 16200.00000 0 22387804.719 8062002.904 -9089970.262 10 0 60061 17100.00000 0 21107362.933 7758898.861 -11949479.473 10 0 60061 18000.00000 0 19470131.757 7529267.317 -14575708.223 10 0 60061 18900.00000 0 17513644.159 7420952.795 -16917217.889 10 0 60061 19800.00000 0 15286182.332 7474329.128 -18928110.211 10 0 60061 20700.00000 0 12844931.015 7720388.089 -20568950.697 10 0 60061 21600.00000 0 10253763.410 8179238.796 -21807562.803 10 0 60061 22500.00000 0 7580753.219 8859084.206 -22619675.449 10 0 60061 23400.00000 0 4895518.423 9755720.189 -22989409.765 10 0 60061 24300.00000 0 2266509.677 10852579.844 -22909594.657 10 0 60061 25200.00000 0 -241641.424 12121321.778 -22381904.710 10 0 60061 26100.00000 0 -2570601.765 13522937.320 -21416817.938 10 0 60061 27000.00000 0 -4670539.217 15009328.929 -20033394.989 10 0 60061 27900.00000 0 -6501955.941 16525291.719 -18258885.354 10 0 60061 28800.00000 0 -8037076.565 18010812.586 -16128169.860 10 0 60061 29700.00000 0 -9260734.875 19403588.024 -13683052.293 10 0 60061 30600.00000 0 -10170724.576 20641652.687 -10971416.026 10 0 60061 31500.00000 0 -10777602.827 21666006.452 -8046264.293 10 0 60061 32400.00000 0 -11103958.761 22423128.534 -4964664.914 10 0 60061 33300.00000 0 -11183181.864 22867272.644 -1786621.890 10 0 60061 34200.00000 0 -11057786.011 22962447.271 1426102.605 10 0 60061 35100.00000 0 -10777363.228 22683999.170 4611191.850 10 0 60061 36000.00000 0 -10396256.116 22019735.481 7706979.964 10 0 60061 36900.00000 0 -9971048.766 20970539.660 10653635.798 10 0 60061 37800.00000 0 -9557982.604 19550457.798 13394303.180 10 0 60061 38700.00000 0 -9210405.627 17786253.837 15876176.932 10 0 60061 39600.00000 0 -8976361.171 15716453.920 18051495.824 10 0 60061 40500.00000 0 -8896415.675 13389920.622 19878435.688 10 0 60061 41400.00000 0 -9001814.433 10864016.365 21321888.126 10 0 60061 42300.00000 0 -9313040.492 8202431.422 22354112.374 10 0 60061 43200.00000 0 -9838835.182 5472764.720 22955250.203 10 0 60061 44100.00000 0 -10575720.085 2743955.071 23113695.891 10 0 60061 45000.00000 0 -11508040.086 83666.073 22826315.468 10 0 60061 45900.00000 0 -12608526.367 -2444270.436 22098511.588 10 0 60061 46800.00000 0 -13839357.425 -4782249.811 20944132.533 10 0 60061 47700.00000 0 -15153676.226 -6881032.497 19385226.000 10 0 60061 48600.00000 0 -16497503.094 -8701537.895 17451640.634 10 0 60061 49500.00000 0 -17811967.588 -10216221.009 15180480.550 10 0 60061 50400.00000 0 -19035769.057 -11409974.921 12615420.635 10 0 60061 51300.00000 0 -20107765.393 -12280520.923 9805892.924 10 0 60061 52200.00000 0 -20969583.174 -12838268.722 6806156.981 10 0 60061 53100.00000 0 -21568140.317 -13105650.744 3674269.922 10 0 60061 54000.00000 0 -21857974.732 -13115956.497 470974.152 10 0 60061 54900.00000 0 -21803279.425 -12911714.140 -2741476.696 10 0 60061 55800.00000 0 -21379555.717 -12542686.039 -5900531.115 10 0 60061 56700.00000 0 -20574811.663 -12063562.149 -8944568.267 10 0 60061 57600.00000 0 -19390251.388 -11531448.827 -11814116.619 10 0 60061 58500.00000 0 -17840422.588 -11003260.257 -14453037.040 10 0 60061 59400.00000 0 -15952812.558 -10533124.723 -16809645.090 10 0 60061 60300.00000 0 -13766906.945 -10169917.967 -18837748.148 10 0 60061 61200.00000 0 -11332748.909 -9955030.940 -20497574.657 10 0 60061 62100.00000 0 -8709058.229 -9920469.361 -21756575.076 10 0 60061 63000.00000 0 -5960989.210 -10087368.258 -22590076.981 10 0 60061 63900.00000 0 -3157622.167 -10464986.605 -22981780.013 10 0 60061 64800.00000 0 -369294.855 -11050226.145 -22924080.107 10 0 60061 65700.00000 0 2335112.902 -11827695.514 -22418216.267 10 0 60061 66600.00000 0 4890826.175 -12770316.857 -21474237.251 10 0 60061 67500.00000 0 7239641.626 -13840448.440 -20110789.501 10 0 60061 68400.00000 0 9332110.163 -14991474.295 -18354731.704 10 0 60061 69300.00000 0 11129344.481 -16169791.729 -16240585.080 10 0 60061 70200.00000 0 12604376.996 -17317110.567 -13809832.072 10 0 60061 71100.00000 0 13743013.441 -18372964.844 -11110079.156 10 0 60061 72000.00000 0 14544149.280 -19277329.041 -8194102.348 10 0 60061 72900.00000 0 15019539.300 -19973227.070 -5118796.065 10 0 60061 73800.00000 0 15193034.080 -20409223.261 -1944047.736 10 0 60061 74700.00000 0 15099319.476 -20541690.389 1268438.353 10 0 60061 75600.00000 0 14782215.957 -20336760.008 4456344.012 10 0 60061 76500.00000 0 14292612.520 -19771874.482 7557943.035 10 0 60061 77400.00000 0 13686124.519 -18836877.406 10513286.682 10 0 60061 78300.00000 0 13020575.254 -17534598.822 13265346.593 10 0 60061 79200.00000 0 12353407.538 -15880912.758 15761094.442 10 0 60061 80100.00000 0 11739133.256 -13904266.435 17952499.393 10 0 60061 81000.00000 0 11226926.461 -11644701.864 19797426.496 10 0 60061 81900.00000 0 10858458.791 -9152410.861 21260421.319 10 0 60061 82800.00000 0 10666065.537 -6485882.920 22313368.303 10 0 60061 83700.00000 0 10671316.844 -3709721.230 22936012.575 10 0 60061 84600.00000 0 10884051.958 -892214.948 23116337.167 10 0 60061 85500.00000 0 11301915.772 1897234.766 22850789.734 10 0 60062 0.00000 0 11910416.747 4590731.586 22144355.120 10 0 60062 900.00000 0 12683504.912 7124440.279 21010471.676 10 0 60062 1800.00000 0 13584646.604 9440976.117 19470792.977 10 0 60062 2700.00000 0 14568354.529 11491535.763 17554796.472 10 0 60062 3600.00000 0 15582111.213 13237679.342 15299245.087 10 0 60062 4500.00000 0 16568608.584 14652691.870 12747509.112 10 0 60062 5400.00000 0 17468212.453 15722466.936 9948758.623 10 0 60062 6300.00000 0 18221550.543 16445874.747 6957039.221 10 0 60062 7200.00000 0 18772116.499 16834597.442 3830246.589 10 0 60062 8100.00000 0 19068780.394 16912436.533 629017.860 10 0 60062 9000.00000 0 19068098.976 16714119.464 -2584439.882 10 0 60062 9900.00000 0 18736326.101 16283653.675 -5747561.501 10 0 60062 10800.00000 0 18051035.564 15672296.289 -8798652.137 10 0 60062 11700.00000 0 17002284.226 14936224.628 -11678106.869 10 0 60062 12600.00000 0 15593262.484 14134006.305 -14329596.125 10 0 60062 13500.00000 0 13840400.895 13323977.123 -16701191.528 10 0 60062 14400.00000 0 11772925.091 12561639.584 -18746407.777 10 0 60062 15300.00000 0 9431875.136 11897194.560 -20425137.731 10 0 60062 16200.00000 0 6868628.816 11373313.222 -21704460.153 10 0 60062 17100.00000 0 4142990.091 11023246.097 -22559302.398 10 0 60062 18000.00000 0 1320923.051 10869351.483 -22972943.560 10 0 60062 18900.00000 0 -1527972.821 10922107.116 -22937347.308 10 0 60062 19800.00000 0 -4333139.036 11179647.735 -22453317.503 10 0 60062 20700.00000 0 -7025772.603 11627848.139 -21530473.734 10 0 60062 21600.00000 0 -9541463.695 12240947.407 -20187047.944 10 0 60062 22500.00000 0 -11822645.238 12982686.359 -18449507.323 10 0 60062 23400.00000 0 -13820751.596 13807908.044 -16352012.412 10 0 60062 24300.00000 0 -15497996.600 14664551.164 -13935722.880 10 0 60062 25200.00000 0 -16828697.955 15495949.665 -11247966.611 10 0 60062 26100.00000 0 -17800094.865 16243338.902 -8341290.468 10 0 60062 27000.00000 0 -18412627.749 16848460.620 -5272413.378 10 0 60062 27900.00000 0 -18679672.011 17256155.350 -2101103.983 10 0 60062 28800.00000 0 -18626740.972 17416832.238 1110993.631 10 0 60062 29700.00000 0 -18290195.366 17288712.331 4301562.211 10 0 60062 30600.00000 0 -17715517.135 16839751.707 7408817.700 10 0 60062 31500.00000 0 -16955222.897 16049165.040 10372696.314 10 0 60062 32400.00000 0 -16066506.659 14908487.484 13136000.104 10 0 60062 33300.00000 0 -15108711.643 13422132.253 15645480.197 10 0 60062 34200.00000 0 -14140737.136 11607422.379 17852838.724 10 0 60062 35100.00000 0 -13218487.915 9494096.578 19715632.432 10 0 60062 36000.00000 0 -12392471.164 7123310.360 21198063.192 10 0 60062 36900.00000 0 -11705639.051 4546173.688 22271642.777 10 0 60062 37800.00000 0 -11191564.605 1821884.637 22915721.539 10 0 60062 38700.00000 0 -10873024.771 -984465.657 23117872.831 10 0 60062 39600.00000 0 -10761048.002 -3804328.660 22874127.151 10 0 60062 40500.00000 0 -10854465.112 -6568277.230 22189052.191 10 0 60062 41400.00000 0 -11139982.018 -9208624.329 21075677.034 10 0 60062 42300.00000 0 -11592772.190 -11661976.559 19555260.991 10 0 60062 43200.00000 0 -12177565.730 -13871619.668 17656909.805 10 0 60062 44100.00000 0 -12850191.878 -15789639.207 15417044.217 10 0 60062 45000.00000 0 -13559513.001 -17378689.475 12878728.482 10 0 60062 45900.00000 0 -14249671.661 -18613337.374 10090868.845 10 0 60062 46800.00000 0 -14862558.656 -19480924.413 7107294.679 10 0 60062 47700.00000 0 -15340399.850 -19981909.322 3985737.634 10 0 60062 48600.00000 0 -15628353.482 -20129674.843 786726.660 10 0 60062 49500.00000 0 -15677007.998 -19949804.525 -2427580.866 10 0 60062 50400.00000 0 -15444673.405 -19478857.711 -5594609.570 10 0 60062 51300.00000 0 -14899366.855 -18762692.514 -8652594.133 10 0 60062 52200.00000 0 -14020405.206 -17854406.361 -11541799.921 10 0 60062 53100.00000 0 -12799533.518 -16811980.745 -14205710.628 10 0 60062 54000.00000 0 -11241537.878 -15695730.223 -16592157.569 10 0 60062 54900.00000 0 -9364313.001 -14565664.818 -18654366.184 10 0 60062 55800.00000 0 -7198378.608 -13478879.314 -20351896.828 10 0 60062 56700.00000 0 -4785862.575 -12487082.154 -21651459.175 10 0 60062 57600.00000 0 -2178992.098 -11634370.810 -22527582.391 10 0 60062 58500.00000 0 561844.229 -10955349.864 -22963126.410 10 0 60062 59400.00000 0 3370381.866 -10473673.028 -22949623.372 10 0 60062 60300.00000 0 6177016.556 -10201071.707 -22487442.086 10 0 60062 61200.00000 0 8911483.741 -10136911.320 -21585772.468 10 0 60062 62100.00000 0 11505567.555 -10268293.409 -20262430.919 10 0 60062 63000.00000 0 13895724.813 -10570697.714 -18543491.603 10 0 60062 63900.00000 0 16025513.377 -11009134.884 -16462752.375 10 0 60062 64800.00000 0 17847723.207 -11539758.420 -14061047.706 10 0 60062 65700.00000 0 19326121.686 -12111864.858 -11385424.035 10 0 60062 66600.00000 0 20436741.744 -12670194.790 -8488195.856 10 0 60062 67500.00000 0 21168661.343 -13157434.955 -5425903.065 10 0 60062 68400.00000 0 21524244.838 -13516813.709 -2258191.763 10 0 60062 69300.00000 0 21518839.743 -13694678.962 953358.031 10 0 60062 70200.00000 0 21179945.445 -13642949.338 4146433.834 10 0 60062 71100.00000 0 20545892.397 -13321335.499 7259197.408 10 0 60062 72000.00000 0 19664090.350 -12699239.131 10231473.306 10 0 60062 72900.00000 0 18588921.518 -11757251.245 13005896.974 10 0 60062 73800.00000 0 17379368.403 -10488188.712 15529001.523 10 0 60062 74700.00000 0 16096476.048 -8897627.340 17752224.082 10 0 60062 75600.00000 0 14800754.272 -7003910.661 19632814.622 10 0 60062 76500.00000 0 13549626.912 -4837634.887 21134632.359 10 0 60062 77400.00000 0 12395032.423 -2440631.551 22228816.974 10 0 60062 78300.00000 0 11381273.334 135510.711 22894324.185 10 0 60062 79200.00000 0 10543201.626 2831325.681 23118317.400 10 0 60062 80100.00000 0 9904813.346 5581674.993 22896409.331 10 0 60062 81000.00000 0 9478309.298 8318191.302 22232749.635 10 0 60062 81900.00000 0 9263660.054 10971861.558 21139956.735 10 0 60062 82800.00000 0 9248693.444 13475646.854 19638894.219 10 0 60062 83700.00000 0 9409701.763 15767033.463 17758294.381 10 0 60062 84600.00000 0 9712545.051 17790411.804 15534233.869 10 0 60062 85500.00000 0 10114206.443 19499186.114 13009468.810 10 0 60063 0.00000 0 10564736.855 20857527.644 10232639.638 10 0 60063 900.00000 0 11009509.870 21841698.540 7257356.617 10 0 60063 1800.00000 0 11391693.242 22440888.107 4141185.098 10 0 60063 2700.00000 0 11654834.790 22657526.839 944543.256 10 0 60063 3600.00000 0 11745453.091 22507060.744 -2270463.882 10 0 60063 4500.00000 0 11615522.832 22017193.696 -5441253.328 10 0 60063 5400.00000 0 11224747.717 21226627.305 -8505991.829 10 0 60063 6300.00000 0 10542521.921 20183349.624 -11404817.419 10 0 60063 7200.00000 0 9549493.564 18942543.894 -14081029.227 10 0 60063 8100.00000 0 8238660.249 17564205.443 -16482220.197 10 0 60063 9000.00000 0 6615946.474 16110568.038 -18561328.217 10 0 60063 9900.00000 0 4700235.041 14643449.849 -20277582.598 10 0 60063 10800.00000 0 2522848.253 13221633.032 -21597325.178 10 0 60063 11700.00000 0 126498.634 11898389.768 -22494687.966 10 0 60063 12600.00000 0 -2436247.789 10719261.351 -22952112.535 10 0 60063 13500.00000 0 -5104931.360 9720185.796 -22960700.016 10 0 60063 14400.00000 0 -7813499.055 8926054.162 -22520384.367 10 0 60063 15300.00000 0 -10492847.540 8349756.861 -21639925.664 10 0 60063 16200.00000 0 -13073501.076 7991759.669 -20336724.187 10 0 60063 17100.00000 0 -15488310.702 7840225.931 -18636460.073 10 0 60063 18000.00000 0 -17675060.472 7871677.618 -16572567.132 10 0 60063 18900.00000 0 -19578871.043 8052164.513 -14185552.945 10 0 60063 19800.00000 0 -21154300.047 8338889.008 -11522180.584 10 0 60063 20700.00000 0 -22367052.188 8682214.589 -8634530.103 10 0 60063 21600.00000 0 -23195229.254 9027970.102 -5578960.196 10 0 60063 22500.00000 0 -23630070.196 9319949.813 -2414992.205 10 0 60063 23400.00000 0 -23676153.441 9502501.704 795860.173 10 0 60063 24300.00000 0 -23351056.485 9523093.571 3991291.508 10 0 60063 25200.00000 0 -22684490.590 9334748.342 7109411.702 10 0 60063 26100.00000 0 -21716950.177 8898246.482 10089936.011 10 0 60063 27000.00000 0 -20497936.163 8184003.931 12875335.654 10 0 60063 27900.00000 0 -19083829.535 7173548.234 15411928.108 10 0 60063 28800.00000 0 -17535504.966 5860532.684 17650887.816 10 0 60063 29700.00000 0 -15915784.043 4251247.595 19549160.178 10 0 60063 30600.00000 0 -14286833.259 2364608.472 21070263.778 10 0 60063 31500.00000 0 -12707613.284 231622.018 22184967.999 10 0 60063 32400.00000 0 -11231483.275 -2105648.195 22871835.447 10 0 60063 33300.00000 0 -9904057.124 -4595574.768 23117620.817 10 0 60063 34200.00000 0 -8761398.195 -7178858.438 22917519.958 10 0 60063 35100.00000 0 -7828625.365 -9790743.425 22275265.096 10 0 60063 36000.00000 0 -7118986.741 -12363467.769 21203064.288 10 0 60063 36900.00000 0 -6633438.920 -14828850.593 19721385.348 10 0 60063 37800.00000 0 -6360749.425 -17120912.393 17858586.747 10 0 60063 38700.00000 0 -6278119.082 -19178422.485 15650400.312 10 0 60063 39600.00000 0 -6352299.995 -20947269.754 13139272.984 10 0 60063 40500.00000 0 -6541164.409 -22382559.173 10373577.475 10 0 60063 41400.00000 0 -6795660.864 -23450346.686 7406704.235 10 0 60063 42300.00000 0 -7062077.348 -24128938.989 4296049.840 10 0 60063 43200.00000 0 -7284517.560 -24409701.942 1101919.406 10 0 60063 44100.00000 0 -7407486.406 -24297341.274 -2113636.937 10 0 60063 45000.00000 0 -7378475.101 -23809641.000 -5288031.387 10 0 60063 45900.00000 0 -7150435.140 -22976667.879 -8359365.812 10 0 60063 46800.00000 0 -6684034.062 -21839473.061 -11267654.176 10 0 60063 47700.00000 0 -5949594.372 -20448344.018 -13956014.456 10 0 60063 48600.00000 0 -4928629.908 -18860679.574 -16371804.695 10 0 60063 49500.00000 0 -3614910.796 -17138577.715 -18467678.628 10 0 60063 50400.00000 0 -2015008.317 -15346238.770 -20202537.749 10 0 60063 51300.00000 0 -148293.434 -13547295.002 -21542358.947 10 0 60063 52200.00000 0 1953613.503 -11802181.075 -22460879.530 10 0 60063 53100.00000 0 4247920.354 -10165658.308 -22940124.659 10 0 60063 54000.00000 0 6682223.497 -8684598.814 -22970765.851 10 0 60063 54900.00000 0 9196485.232 -7396124.227 -22552303.038 10 0 60063 55800.00000 0 11725344.397 -6326178.051 -21693066.735 10 0 60063 56700.00000 0 14200661.978 -5488591.507 -20410040.843 10 0 60063 57600.00000 0 16554193.485 -4884681.083 -18728510.711 10 0 60063 58500.00000 0 18720274.582 -4503392.709 -16681544.809 10 0 60063 59400.00000 0 20638406.352 -4321983.701 -14309322.023 10 0 60063 60300.00000 0 22255631.333 -4307210.404 -11658319.734 10 0 60063 61200.00000 0 23528600.973 -4416967.848 -8780380.720 10 0 60063 62100.00000 0 24425248.915 -4602308.683 -5731679.207 10 0 60063 63000.00000 0 24926001.883 -4809752.918 -2571608.146 10 0 60063 63900.00000 0 25024479.959 -4983788.361 638388.939 10 0 60063 64800.00000 0 24727660.030 -5069454.284 3836017.619 10 0 60063 65700.00000 0 24055498.864 -5014898.388 6959339.815 10 0 60063 66600.00000 0 23040034.848 -4773799.130 9947965.152 10 0 60063 67500.00000 0 21724008.839 -4307552.122 12744203.990 10 0 60063 68400.00000 0 20159063.972 -3587129.945 15294161.126 10 0 60063 69300.00000 0 18403600.948 -2594538.927 17548750.836 10 0 60063 70200.00000 0 16520378.570 -1323813.518 19464616.005 10 0 60063 71100.00000 0 14573958.807 218491.940 21004936.180 10 0 60063 72000.00000 0 12628101.144 2013333.722 22140111.594 10 0 60063 72900.00000 0 10743212.192 4029730.152 22848312.459 10 0 60063 73800.00000 0 8973953.792 6225811.840 23115885.045 10 0 60063 74700.00000 0 7367106.039 8550328.775 22937608.207 10 0 60063 75600.00000 0 5959771.308 10944554.257 22316796.208 10 0 60063 76500.00000 0 4777991.706 13344509.808 21265245.812 10 0 60063 77400.00000 0 3835835.985 15683422.198 19803027.769 10 0 60063 78300.00000 0 3134993.378 17894314.071 17958125.115 10 0 60063 79200.00000 0 2664891.591 19912623.698 15765922.951 10 0 60063 80100.00000 0 2403335.144 21678747.280 13268556.875 10 0 60063 81000.00000 0 2317639.101 23140399.516 10514129.764 10 0 60063 81900.00000 0 2366212.638 24254694.393 7555809.200 10 0 60063 82800.00000 0 2500527.956 24989858.627 4450820.500 10 0 60063 83700.00000 0 2667393.292 25326504.418 1259352.896 10 0 60063 84600.00000 0 2811435.184 25258405.766 -1956601.281 10 0 60063 85500.00000 0 2877685.276 24792742.858 -5134452.310 99